Weather History for Pope Field Airport, NC

Change the Weather History Date:

Sunday, January 6, 2013

  Actual Average Record
Temperature  
Mean Temperature 42 °F -  
Max Temperature 46 °F 54 °F 73 °F (1998)
Min Temperature 37 °F 34 °F 12 °F (1999)
Degree Days  
Heating Degree Days 24    
Moisture  
Dew Point 40 °F    
Average Humidity 90    
Maximum Humidity 100    
Minimum Humidity 55    
Precipitation  
Precipitation 0.03 in - - ()
Sea Level Pressure  
Sea Level Pressure 30.16 in    
Wind  
Wind Speed 2 mph (SW)    
Max Wind Speed 9 mph    
Max Gust Speed -    
Visibility 6 miles    
Events Fog , Rain    
Averages and records for this station are not official NWS values.
T = Trace of Precipitation, MM = Missing Value Source: NWS Daily Summary

Daily Weather History Graph

Daily Weather History Graph

Search for Another Location

Airport:

Trip Planner

Search our weather history database for the weather conditions in past years. The results will help you decide how hot, cold, wet, or windy it might be!

Date:

Astronomy

Jan. 06, 2013 Rise Set
Actual Time 7:25 AM EST 5:19 PM EST
Civil Twilight 6:57 AM EST 5:47 PM EST
Nautical Twilight 6:25 AM EST 6:18 PM EST
Astronomical Twilight 5:54 AM EST 6:49 PM EST
Moon 1:42 AM EST (1/6) 12:41 PM EST (1/6)
Length of Visible Light 10h 50m
Length of Day
9h 54m
Waning Crescent, 33% of the Moon is Illuminated
Jan 6
Waning Crescent
Jan 11
New
Jan 18
First Quarter
Jan 26
Full
Feb 3
Last Quarter

Hourly Weather History & Observations

Time (EST) Temp. Windchill Dew Point Humidity Pressure Visibility Wind Dir Wind Speed Gust Speed Precip Events Conditions
12:55 AM 42.6 °F - 28.8 °F 58% 30.24 in 10.0 mi Calm Calm - N/A   Mostly Cloudy
1:55 AM 44.1 °F 40.1 °F 28.6 °F 55% 30.25 in 10.0 mi SW 6.9 mph - N/A   Overcast
2:55 AM 43.9 °F 40.5 °F 29.5 °F 57% 30.25 in 10.0 mi WSW 5.8 mph - N/A   Overcast
3:38 AM 44.6 °F - 30.2 °F 57% 30.24 in 10.0 mi Calm Calm - N/A   Light Drizzle
3:55 AM 43.3 °F - 33.6 °F 69% 30.24 in 10.0 mi Calm Calm - 0.00 in Rain Light Rain
4:13 AM 42.8 °F - 32.0 °F 66% 30.22 in 10.0 mi Calm Calm - N/A   Overcast
4:34 AM 42.8 °F - 33.8 °F 70% 30.21 in 10.0 mi Calm Calm - N/A Rain Light Rain
4:48 AM 42.8 °F - 35.6 °F 76% 30.21 in 10.0 mi Calm Calm - N/A   Overcast
4:55 AM 42.6 °F - 35.4 °F 76% 30.21 in 10.0 mi Calm Calm - 0.00 in   Overcast
5:18 AM 42.8 °F - 35.6 °F 76% 30.21 in 10.0 mi Calm Calm - N/A Rain Light Rain
5:32 AM 42.8 °F - 37.4 °F 81% 30.20 in 10.0 mi Calm Calm - N/A   Overcast
5:55 AM 42.8 °F - 35.6 °F 76% 30.19 in 10.0 mi Calm Calm - 0.00 in   Overcast
6:55 AM 43.7 °F - 35.4 °F 73% 30.20 in 10.0 mi Calm Calm - N/A   Overcast
7:55 AM 42.6 °F - 38.8 °F 86% 30.21 in 10.0 mi Calm Calm - N/A   Overcast
8:24 AM 42.8 °F - 35.6 °F 76% 30.21 in 10.0 mi Calm Calm - N/A Rain Light Rain
8:40 AM 44.6 °F - 37.4 °F 76% 30.22 in 10.0 mi Calm Calm - N/A   Overcast
8:55 AM 44.2 °F - 36.5 °F 74% 30.22 in 10.0 mi Calm Calm - 0.00 in   Light Drizzle
9:08 AM 44.6 °F 43.1 °F 37.4 °F 76% 30.22 in 10.0 mi WSW 3.5 mph - N/A   Overcast
9:48 AM 46.4 °F 42.9 °F 37.4 °F 71% 30.23 in 10.0 mi SW 6.9 mph - N/A   Light Drizzle
9:55 AM 45.7 °F 42.0 °F 37.2 °F 72% 30.22 in 10.0 mi SW 6.9 mph - 0.00 in   Light Drizzle
9:58 AM 46.4 °F 42.9 °F 37.4 °F 71% 30.23 in 10.0 mi SW 6.9 mph - N/A   Overcast
10:17 AM 46.4 °F 43.5 °F 37.4 °F 71% 30.22 in 10.0 mi WSW 5.8 mph - N/A Rain Light Rain
10:35 AM 44.6 °F 41.4 °F 39.2 °F 81% 30.22 in 10.0 mi SW 5.8 mph - N/A   Overcast
10:37 AM 44.6 °F 41.4 °F 39.2 °F 81% 30.22 in 10.0 mi SSW 5.8 mph - N/A Rain Light Rain
10:55 AM 45.3 °F 42.3 °F 39.2 °F 79% 30.21 in 10.0 mi SSW 5.8 mph - 0.00 in Rain Light Rain
11:09 AM 44.6 °F 41.4 °F 39.2 °F 81% 30.20 in 10.0 mi SSW 5.8 mph - N/A   Overcast
11:11 AM 44.6 °F 41.4 °F 39.2 °F 81% 30.20 in 10.0 mi SW 5.8 mph - N/A Rain Light Rain
11:55 AM 45.1 °F 40.8 °F 41.2 °F 86% 30.18 in 10.0 mi WSW 8.1 mph - 0.01 in   Light Drizzle
11:56 AM 44.6 °F 40.2 °F 41.0 °F 87% 30.17 in 10.0 mi WSW 8.1 mph - N/A   Overcast
11:58 AM 44.6 °F 40.2 °F 41.0 °F 87% 30.17 in 10.0 mi WSW 8.1 mph - N/A   Light Drizzle
12:36 PM 44.6 °F 40.7 °F 42.8 °F 93% 30.15 in 10.0 mi WSW 6.9 mph - N/A   Overcast
12:55 PM 45.7 °F 41.5 °F 42.1 °F 87% 30.14 in 10.0 mi SW 8.1 mph - 0.01 in   Overcast
12:57 PM 46.4 °F 42.9 °F 42.8 °F 87% 30.14 in 10.0 mi WSW 6.9 mph - N/A   Overcast
12:58 PM 46.4 °F 42.9 °F 42.8 °F 87% 30.14 in 10.0 mi WSW 6.9 mph - N/A Rain Light Rain
1:18 PM 44.6 °F 40.7 °F 41.0 °F 87% 30.13 in 10.0 mi WSW 6.9 mph - N/A   Overcast
1:36 PM 46.4 °F 42.9 °F 42.8 °F 87% 30.13 in 10.0 mi WSW 6.9 mph - N/A Rain Light Rain
1:55 PM 45.7 °F 42.0 °F 42.3 °F 88% 30.12 in 10.0 mi SW 6.9 mph - 0.00 in Rain Light Rain
2:17 PM 46.4 °F 44.3 °F 42.8 °F 87% 30.11 in 10.0 mi SSW 4.6 mph - N/A   Overcast
2:31 PM 46.4 °F 44.3 °F 42.8 °F 87% 30.11 in 10.0 mi SSW 4.6 mph - N/A Rain Light Rain
2:34 PM 46.4 °F 43.5 °F 42.8 °F 87% 30.11 in 10.0 mi SSW 5.8 mph - N/A Rain Light Rain
2:44 PM 46.4 °F 43.5 °F 42.8 °F 87% 30.10 in 10.0 mi SSW 5.8 mph - N/A   Overcast
2:55 PM 46.2 °F 45.0 °F 42.4 °F 87% 30.10 in 10.0 mi SW 3.5 mph - 0.00 in   Overcast
3:42 PM 46.4 °F 43.5 °F 42.8 °F 87% 30.10 in 10.0 mi SW 5.8 mph - N/A   Light Drizzle
3:55 PM 46.2 °F 42.7 °F 43.2 °F 89% 30.09 in 10.0 mi SSW 6.9 mph - 0.00 in Rain Light Rain
4:03 PM 46.4 °F 43.5 °F 42.8 °F 87% 30.09 in 10.0 mi SSW 5.8 mph - N/A   Overcast
4:55 PM 46.0 °F 43.1 °F 43.0 °F 89% 30.09 in 10.0 mi SSW 5.8 mph - 0.01 in   Overcast
5:24 PM 46.4 °F 41.9 °F 42.8 °F 87% 30.09 in 10.0 mi SSW 9.2 mph - N/A   Overcast
5:36 PM 46.4 °F 43.5 °F 44.6 °F 93% 30.09 in 10.0 mi SSW 5.8 mph - N/A   Overcast
5:39 PM 46.4 °F 44.3 °F 44.6 °F 93% 30.08 in 10.0 mi SSW 4.6 mph - N/A   Overcast
5:55 PM 45.9 °F 44.6 °F 44.2 °F 94% 30.08 in 10.0 mi SSW 3.5 mph - N/A   Overcast
6:14 PM 46.4 °F - 44.6 °F 93% 30.09 in 10.0 mi Calm Calm - N/A   Overcast
6:42 PM 46.4 °F 45.2 °F 44.6 °F 93% 30.11 in 10.0 mi WNW 3.5 mph - N/A   Overcast
6:55 PM 46.0 °F 44.8 °F 44.4 °F 94% 30.12 in 10.0 mi WNW 3.5 mph - N/A   Overcast
7:13 PM 46.4 °F - 44.6 °F 93% 30.12 in 10.0 mi Calm Calm - N/A   Overcast
7:15 PM 46.4 °F - 44.6 °F 93% 30.12 in 10.0 mi Calm Calm - N/A   Overcast
7:28 PM 46.4 °F - 44.6 °F 93% 30.12 in 10.0 mi Calm Calm - N/A   Overcast
7:34 PM 46.4 °F - 44.6 °F 93% 30.12 in 10.0 mi Calm Calm - N/A   Overcast
7:37 PM 46.4 °F 45.2 °F 44.6 °F 93% 30.12 in 10.0 mi SW 3.5 mph - N/A   Overcast
7:43 PM 46.4 °F - 44.6 °F 93% 30.12 in 10.0 mi Calm Calm - N/A   Overcast
7:51 PM 46.4 °F - 44.6 °F 93% 30.11 in 10.0 mi Calm Calm - N/A   Overcast
7:55 PM 45.9 °F - 44.4 °F 95% 30.12 in 10.0 mi Calm Calm - N/A   Overcast
8:11 PM 44.6 °F - 44.6 °F 100% 30.13 in 10.0 mi Calm Calm - N/A   Overcast
8:24 PM 46.4 °F - 44.6 °F 93% 30.13 in 10.0 mi Calm Calm - N/A   Overcast
8:55 PM 44.1 °F - 43.2 °F 97% 30.13 in 9.0 mi Calm Calm - N/A   Overcast
9:02 PM 42.8 °F 41.1 °F 42.8 °F 100% 30.13 in 6.0 mi West 3.5 mph - N/A   Mostly Cloudy
9:06 PM 42.8 °F 41.1 °F 42.8 °F 100% 30.13 in 6.0 mi WNW 3.5 mph - N/A   Mostly Cloudy
9:16 PM 42.8 °F 39.3 °F 42.8 °F 100% 30.14 in 10.0 mi West 5.8 mph - N/A   Scattered Clouds
9:37 PM 42.8 °F - 41.0 °F 93% 30.14 in 4.0 mi Calm Calm - N/A   Clear
9:40 PM 42.8 °F - 41.0 °F 93% 30.14 in 3.0 mi Calm Calm - N/A   Clear
9:41 PM 42.8 °F - 41.0 °F 93% 30.14 in 2.5 mi Calm Calm - N/A   Clear
9:42 PM 42.8 °F - 41.0 °F 93% 30.14 in 2.0 mi Calm Calm - N/A   Clear
9:43 PM 41.0 °F - 41.0 °F 100% 30.14 in 1.8 mi Calm Calm - N/A   Clear
9:44 PM 41.0 °F - 41.0 °F 100% 30.15 in 1.5 mi Calm Calm - N/A   Clear
9:45 PM 41.0 °F - 41.0 °F 100% 30.15 in 1.5 mi Calm Calm - N/A   Clear
9:47 PM 41.0 °F - 41.0 °F 100% 30.15 in 1.2 mi Calm Calm - N/A   Clear
9:49 PM 41.0 °F - 41.0 °F 100% 30.15 in 1.0 mi Calm Calm - N/A   Clear
9:50 PM 41.0 °F - 41.0 °F 100% 30.15 in 0.8 mi Calm Calm - N/A   Clear
9:53 PM 41.0 °F - 39.2 °F 93% 30.15 in 0.5 mi Calm Calm - N/A Fog Fog
9:55 PM 39.2 °F - 38.5 °F 97% 30.15 in 0.5 mi Calm Calm - N/A Fog Fog
9:57 PM 39.2 °F - 37.4 °F 93% 30.15 in 0.5 mi Calm Calm - N/A Fog Fog
10:00 PM 39.2 °F - 39.2 °F 100% 30.15 in 0.5 mi Calm Calm - N/A Fog Fog
10:02 PM 39.2 °F - 39.2 °F 100% 30.15 in 0.5 mi Calm Calm - N/A Fog Fog
10:04 PM 39.2 °F - 39.2 °F 100% 30.15 in 0.5 mi Calm Calm - N/A Fog Fog
10:05 PM 39.2 °F - 39.2 °F 100% 30.15 in 0.5 mi Calm Calm - N/A Fog Fog
10:07 PM 39.2 °F - 39.2 °F 100% 30.15 in 0.8 mi Calm Calm - N/A   Clear
10:18 PM 37.4 °F - 37.4 °F 100% 30.15 in 0.8 mi Calm Calm - N/A   Clear
10:20 PM 37.4 °F - 37.4 °F 100% 30.15 in 0.5 mi Calm Calm - N/A Fog Fog
10:23 PM 37.4 °F - 37.4 °F 100% 30.15 in 0.5 mi Calm Calm - N/A Fog Fog
10:47 PM 37.4 °F - 37.4 °F 100% 30.17 in 0.8 mi Calm Calm - N/A   Partly Cloudy
10:48 PM 37.4 °F - 37.4 °F 100% 30.17 in 0.5 mi Calm Calm - N/A Fog Fog
10:52 PM 37.4 °F - 37.4 °F 100% 30.18 in 0.8 mi Calm Calm - N/A   Scattered Clouds
10:55 PM 37.4 °F - 37.0 °F 99% 30.18 in 0.8 mi Calm Calm - N/A   Scattered Clouds
11:04 PM 37.4 °F - 37.4 °F 100% 30.18 in 0.8 mi Calm Calm - N/A   Partly Cloudy
11:05 PM 37.4 °F - 37.4 °F 100% 30.18 in 1.0 mi Calm Calm - N/A   Partly Cloudy
11:10 PM 37.4 °F - 37.4 °F 100% 30.19 in 1.2 mi Calm Calm - N/A   Scattered Clouds
11:12 PM 37.4 °F - 37.4 °F 100% 30.19 in 1.5 mi Calm Calm - N/A   Scattered Clouds
11:15 PM 37.4 °F - 37.4 °F 100% 30.19 in 1.8 mi Calm Calm - N/A   Scattered Clouds
11:16 PM 37.4 °F - 37.4 °F 100% 30.19 in 1.8 mi Calm Calm - N/A   Scattered Clouds
11:17 PM 39.2 °F - 37.4 °F 93% 30.19 in 2.0 mi Calm Calm - N/A   Partly Cloudy
11:19 PM 39.2 °F - 37.4 °F 93% 30.19 in 2.5 mi Calm Calm - N/A   Partly Cloudy
11:21 PM 39.2 °F 37.0 °F 37.4 °F 93% 30.19 in 2.0 mi West 3.5 mph - N/A   Partly Cloudy
11:23 PM 37.4 °F 34.9 °F 37.4 °F 100% 30.19 in 1.8 mi West 3.5 mph - N/A   Partly Cloudy
11:24 PM 37.4 °F - 37.4 °F 100% 30.19 in 1.5 mi Calm Calm - N/A   Partly Cloudy
11:26 PM 37.4 °F - 37.4 °F 100% 30.19 in 1.2 mi Calm Calm - N/A   Scattered Clouds
11:28 PM 37.4 °F 34.9 °F 37.4 °F 100% 30.19 in 1.0 mi West 3.5 mph - N/A   Scattered Clouds
11:29 PM 37.4 °F 34.9 °F 37.4 °F 100% 30.19 in 1.0 mi West 3.5 mph - N/A   Scattered Clouds
11:32 PM 39.2 °F 37.0 °F 37.4 °F 93% 30.19 in 1.2 mi West 3.5 mph - N/A   Mostly Cloudy
11:33 PM 39.2 °F - 37.4 °F 93% 30.19 in 1.2 mi Calm Calm - N/A   Mostly Cloudy
11:34 PM 39.2 °F - 39.2 °F 100% 30.19 in 1.5 mi Calm Calm - N/A   Mostly Cloudy
11:35 PM 39.2 °F 37.0 °F 39.2 °F 100% 30.19 in 1.8 mi WSW 3.5 mph - N/A   Mostly Cloudy
11:36 PM 39.2 °F 37.0 °F 39.2 °F 100% 30.20 in 2.0 mi WSW 3.5 mph - N/A   Mostly Cloudy
11:38 PM 39.2 °F 37.0 °F 39.2 °F 100% 30.19 in 2.5 mi WSW 3.5 mph - N/A   Mostly Cloudy
11:39 PM 39.2 °F 37.0 °F 39.2 °F 100% 30.19 in 3.0 mi WSW 3.5 mph - N/A   Mostly Cloudy
11:44 PM 39.2 °F 37.0 °F 39.2 °F 100% 30.19 in 5.0 mi SW 3.5 mph - N/A   Mostly Cloudy
11:55 PM 39.7 °F 37.6 °F 39.6 °F 99% 30.20 in 8.0 mi WSW 3.5 mph - N/A   Overcast